Weather reports worldwide

Advertisment
Granada/Aeropuerto, Spain (8419): temperature & dewpoint: 09.09.2019 10:00:00 - 15.09.2019 10:00:00 (CEST)Granada/Aeropuerto, Spain (8419): wind speed: 09.09.2019 10:00:00 - 15.09.2019 10:00:00 (CEST)Granada/Aeropuerto, Spain (8419): wind direction: 09.09.2019 10:00:00 - 15.09.2019 10:00:00 (CEST)Granada/Aeropuerto, Spain (8419): reduced air pressure: 09.09.2019 10:00:00 - 15.09.2019 10:00:00 (CEST)Granada/Aeropuerto, Spain (8419): visibility: 09.09.2019 10:00:00 - 15.09.2019 10:00:00 (CEST)
Date & Time tt [°C] td [°C] ff [km/h] ff [kn] dd ppp [hPa] vv [km]
15.09.2019 10:00:00 20,4 17,5 0 0 N 1018,0 15
15.09.2019 09:00:00 17,8 17,0 0 0 N 1018,4 8
15.09.2019 08:00:00 17,2 16,6 4 2 SSW 1018,4 9
15.09.2019 07:00:00 17,7 16,8 4 2 WNW 1018,2 10
15.09.2019 06:00:00 18,5 16,8 4 2 ESE 1017,7 12
15.09.2019 05:00:00 18,8 17,5 0 0 N 1018,0 14
15.09.2019 04:00:00 18,8 17,5 0 0 N 1018,3 15
15.09.2019 03:00:00 18,9 17,6 0 0 N 1018,2 11
15.09.2019 02:00:00 19,7 17,3 4 2 SE 1018,1 15
15.09.2019 01:00:00 20,5 17,3 4 2 NNE 1018,1 16
15.09.2019 00:00:00 21,1 17,4 2 1 N 1018,2 20
14.09.2019 23:00:00 21,5 17,5 8 4 NNW 1018,0 15
14.09.2019 22:00:00 22,3 17,7 13 7 N 1017,2 18
14.09.2019 21:00:00 23,5 17,9 11 6 NNE 1016,0 19
14.09.2019 20:00:00 24,3 18,0 8 4 W 1015,4 20
14.09.2019 19:00:00 25,9 18,6 9 5 W 1014,7 18
14.09.2019 18:00:00 27,2 17,9 13 7 W 1014,3 24
14.09.2019 17:00:00 26,6 17,8 9 5 WSW 1014,8 20
14.09.2019 16:00:00 25,6 18,3 8 4 WSW 1015,3 26
14.09.2019 15:00:00 23,5 18,3 5 3 WSW 1016,6 20
14.09.2019 14:00:00 21,4 17,8 4 2 W 1018,1 20
14.09.2019 13:00:00 18,9 17,4 8 4 W 1019,7 27
14.09.2019 12:00:00 17,3 16,7 9 5 WSW 1020,4 24
14.09.2019 11:00:00 16,0 15,7 0 0 N 1020,7 5
14.09.2019 10:00:00 16,9 16,5 5 3 S 1019,6 12
14.09.2019 09:00:00 16,5 16,2 8 4 W 1019,8 15
14.09.2019 08:00:00 16,4 16,1 8 4 SE 1020,0 8
14.09.2019 07:00:00 16,0 15,5 5 3 W 1018,3 6
14.09.2019 06:00:00 16,2 15,2 8 4 S 1018,6 10
14.09.2019 05:00:00 16,5 15,2 4 2 S 1018,0 19
14.09.2019 04:00:00 16,4 15,1 2 1 NW 1018,8 19
14.09.2019 03:00:00 16,9 14,9 0 0 N 1019,2 21
14.09.2019 02:00:00 17,0 14,8 8 4 WNW 1019,4 27
14.09.2019 01:00:00 17,7 15,3 8 4 SW 1019,7 28
14.09.2019 00:00:00 18,8 15,6 0 0 N 1019,2 30
13.09.2019 23:00:00 19,2 15,3 2 1 SSW 1019,4 30
13.09.2019 22:00:00 19,7 14,9 5 3 NNW 1019,2 30
13.09.2019 21:00:00 20,6 14,5 4 2 N 1018,3 30
13.09.2019 20:00:00 22,1 14,5 9 5 NNE 1017,8 30
13.09.2019 19:00:00 24,3 13,1 8 4 S 1017,0 27
13.09.2019 18:00:00 24,7 13,2 4 2 E 1016,2 30
13.09.2019 17:00:00 24,4 11,5 8 4 NE 1016,3 30
13.09.2019 16:00:00 24,4 13,8 8 4 N 1016,7 30
13.09.2019 15:00:00 23,0 12,0 9 5 E 1018,1 30
13.09.2019 14:00:00 23,1 14,3 8 4 N 1018,1 30
13.09.2019 13:00:00 21,0 13,6 8 4 NNE 1019,1 30
13.09.2019 12:00:00 18,6 13,8 9 5 NE 1020,1 30
13.09.2019 11:00:00 18,4 13,0 0 0 N 1020,0 30
13.09.2019 10:00:00 16,7 14,2 4 2 S 1019,8 30
13.09.2019 09:00:00 15,2 12,7 9 5 NNE 1020,0 30
13.09.2019 08:00:00 14,8 13,0 16 9 NNE 1019,1 30
13.09.2019 07:00:00 14,9 13,7 5 3 E 1022,0 18
13.09.2019 06:00:00 14,8 13,1 4 2 W 1020,8 6
13.09.2019 05:00:00 15,8 12,0 4 2 NW 1020,2 17
13.09.2019 04:00:00 16,4 11,1 16 9 NE 1020,4 30
13.09.2019 03:00:00 16,3 13,4 8 4 ENE 1021,0 30
13.09.2019 02:00:00 16,8 13,1 9 5 NNE 1021,7 30
13.09.2019 01:00:00 17,4 13,3 9 5 NE 1021,9 30
13.09.2019 00:00:00 17,3 14,4 0 0 N 1022,0 30
12.09.2019 23:00:00 17,2 14,5 5 3 NNE 1022,4 30
12.09.2019 22:00:00 17,7 14,3 8 4 NE 1022,0 30
12.09.2019 21:00:00 18,0 13,9 13 7 NNE 1021,2 30
12.09.2019 20:00:00 18,5 14,2 16 9 NNE 1020,9 30
12.09.2019 19:00:00 18,5 14,4 18 10 NNE 1020,9 30
12.09.2019 18:00:00 22,2 12,2 21 11 NNE 1019,4 30
12.09.2019 17:00:00 22,7 12,3 16 9 NE 1019,2 30
12.09.2019 16:00:00 22,8 11,2 4 2 NNW 1019,9 30
12.09.2019 15:00:00 21,8 10,9 4 2 ESE 1020,7 30
12.09.2019 14:00:00 21,1 11,3 4 2 E 1020,9 30
12.09.2019 13:00:00 20,3 11,8 4 2 SW 1021,2 30
12.09.2019 12:00:00 18,9 11,8 0 0 N 1021,9 30
12.09.2019 11:00:00 17,0 11,5 2 1 ENE 1022,0 30
12.09.2019 10:00:00 15,9 11,9 5 3 ENE 1021,5 30
12.09.2019 09:00:00 15,2 11,8 9 5 SE 1021,1 30
12.09.2019 08:00:00 14,8 10,4 0 0 N 1020,2 30
12.09.2019 07:00:00 14,9 11,1 8 4 ENE 1020,4 30
12.09.2019 06:00:00 14,0 12,4 8 4 SW 1020,0 30
12.09.2019 05:00:00 15,9 10,5 8 4 E 1020,5 30
12.09.2019 04:00:00 15,4 9,5 9 5 NE 1020,8 30
12.09.2019 03:00:00 15,4 9,5 15 8 NNE 1021,0 30
12.09.2019 02:00:00 15,5 9,6 16 9 NNE 1020,6 30
12.09.2019 01:00:00 16,0 9,9 15 8 NNE 1021,1 30
12.09.2019 00:00:00 17,2 9,2 9 5 NE 1020,7 30
11.09.2019 23:00:00 18,2 8,5 13 7 ENE 1020,1 25
11.09.2019 22:00:00 18,9 8,8 4 2 ENE 1019,0 30
11.09.2019 21:00:00 19,8 8,8 8 4 ESE 1018,0 30
11.09.2019 20:00:00 21,3 8,6 8 4 ESE 1016,7 30
11.09.2019 19:00:00 22,5 8,0 15 8 ENE 1016,0 30
11.09.2019 18:00:00 22,5 7,9 11 6 NE 1016,1 30
11.09.2019 17:00:00 21,8 8,1 21 11 N 1016,3 30
11.09.2019 16:00:00 20,6 8,2 16 9 ENE 1017,3 30
11.09.2019 15:00:00 20,1 8,2 11 6 NE 1017,6 30
11.09.2019 14:00:00 20,0 8,1 21 11 NNE 1017,9 30
11.09.2019 13:00:00 20,0 8,3 8 4 NE 1018,1 30
11.09.2019 12:00:00 18,5 7,7 13 7 N 1018,2 30
11.09.2019 11:00:00 17,3 6,8 8 4 N 1018,7 25
11.09.2019 10:00:00 15,9 7,2 13 7 NNE 1018,8 30
11.09.2019 09:00:00 13,6 7,4 13 7 N 1018,8 15
11.09.2019 08:00:00 13,0 6,6 11 6 NNE 1018,6 30
11.09.2019 07:00:00 12,0 6,6 11 6 N 1017,7 30
11.09.2019 06:00:00 12,7 6,4 11 6 NNE 1017,5 30
11.09.2019 05:00:00 12,3 6,6 0 0 N 1017,6 30
11.09.2019 04:00:00 13,0 6,8 11 6 NNE 1017,2 30
11.09.2019 03:00:00 15,0 6,5 9 5 NE 1017,8 30
11.09.2019 02:00:00 16,1 5,7 13 7 NE 1017,5 30
11.09.2019 01:00:00 18,2 4,0 22 12 NE 1016,5 30
11.09.2019 00:00:00 15,9 4,8 4 2 N 1016,0 30
10.09.2019 23:00:00 16,7 4,0 4 2 NNE 1015,7 30
10.09.2019 22:00:00 18,1 2,4 15 8 NNW 1014,9 30
10.09.2019 21:00:00 19,0 2,8 15 8 NW 1013,7 30
10.09.2019 20:00:00 22,2 1,8 18 10 NNW 1012,5 30
10.09.2019 19:00:00 23,4 5,8 22 12 NNW 1011,6 30
10.09.2019 18:00:00 23,4 6,3 26 14 NNW 1011,5 30
10.09.2019 17:00:00 23,3 7,4 24 13 NNW 1011,7 30
10.09.2019 16:00:00 21,9 8,8 21 11 N 1012,3 30
10.09.2019 15:00:00 22,2 9,5 24 13 NNW 1012,6 30
10.09.2019 14:00:00 21,7 9,1 24 13 NW 1013,0 30
10.09.2019 13:00:00 20,3 10,5 18 10 W 1013,5 27
10.09.2019 12:00:00 19,6 9,9 22 12 W 1013,8 30
10.09.2019 11:00:00 18,3 9,4 16 9 W 1014,4 30
10.09.2019 10:00:00 18,1 11,6 9 5 W 1014,3 20
10.09.2019 09:00:00 15,3 10,8 11 6 WSW 1014,8 25
10.09.2019 08:00:00 14,7 10,7 8 4 WSW 1014,9 25
10.09.2019 07:00:00 13,8 11,8 0 0 N 1015,2 18
10.09.2019 06:00:00 15,0 12,7 8 4 S 1015,2 23
10.09.2019 05:00:00 16,1 12,9 5 3 SE 1015,6 26
10.09.2019 04:00:00 18,0 13,3 4 2 SE 1015,7 30
10.09.2019 03:00:00 19,1 13,2 8 4 SW 1016,0 30
10.09.2019 02:00:00 18,0 14,9 5 3 SW 1016,7 30
10.09.2019 01:00:00 17,6 16,3 0 0 N 1017,1 12
10.09.2019 00:00:00 18,0 16,7 0 0 N 1017,1 15
09.09.2019 23:00:00 18,9 16,5 0 0 N 1016,8 25
09.09.2019 22:00:00 19,9 16,7 4 2 SSW 1016,2 17
09.09.2019 21:00:00 21,2 17,0 2 1 NNW 1015,5 25
09.09.2019 20:00:00 24,1 15,8 2 1 E 1014,6 25
09.09.2019 19:00:00 24,0 16,1 2 1 NE 1014,6 30
09.09.2019 18:00:00 21,9 15,2 5 3 WNW 1015,4 30
09.09.2019 17:00:00 22,4 14,8 4 2 NW 1015,5 15
09.09.2019 16:00:00 26,0 13,6 18 10 N 1014,9 30
09.09.2019 15:00:00 28,4 16,2 11 6 W 1014,1 30
09.09.2019 14:00:00 26,4 15,5 5 3 W 1015,6 30
09.09.2019 13:00:00 24,4 15,6 4 2 NW 1017,0 30
09.09.2019 12:00:00 21,3 16,0 0 0 N 1018,2 24
09.09.2019 11:00:00 18,8 16,4 0 0 N 1018,7 14
09.09.2019 10:00:00 17,7 15,9 0 0 N 1018,9 10

tt = temperature
td = dewpoint
ff = wind speed
dd = wind direction
ppp = reduced air pressure
vv = visibility

Next stations